Date String (YYYY-MM-DD hh:mm:ss) UTC,Instrument flags,Ambient pressure (hPa),Sample flow (lpm),Bypass flow (lpm),Sample temperature (°C),Ambient temperature (°C),ASC tube jacket temperature (°C),LED temperature (°C),Box temperature (°C),Sample RH (%),Span deviation,Mass concentration (μg/m³),Mass concentration (μg/m³),Mass concentration (μg/m³)
DateTimeUTC,F1_M11,P_M11,Q1_M11,Q2_M11,T1_M11,T2_M11,T3_M11,T4_M11,T5_M11,U1_M11,ZSPAN_M11,X0_M11,X2_M11,X1_M11
2022-11-29 02:00:00,,0810.5,5.00,0.00,21.5,20.2,00.0,30.4,23.3,13.8,0000.0,0010.71,0003.80,0002.83
2022-11-29 02:01:00,,0810.5,5.00,0.00,21.5,20.1,00.0,30.4,23.3,13.7,0000.0,0010.28,0003.81,0002.83
2022-11-29 02:02:00,,0810.5,5.00,0.00,21.4,20.0,00.0,30.4,23.2,13.8,0000.0,0010.60,0003.79,0002.82
2022-11-29 02:03:00,,0810.5,5.00,0.00,21.4,19.9,00.0,30.4,23.2,13.9,0000.0,0010.77,0003.77,0002.81
2022-11-29 02:04:00,,0810.5,5.00,0.00,21.4,19.8,00.0,30.4,23.1,13.9,0000.0,0010.63,0003.74,0002.78
2022-11-29 02:05:00,,0810.5,5.00,0.00,21.4,19.8,00.0,30.4,23.1,13.9,0000.0,0010.58,0003.69,0002.75
2022-11-29 02:06:00,,0810.5,5.00,0.00,21.3,19.8,00.0,30.4,23.1,13.9,0000.0,0010.57,0003.66,0002.73
2022-11-29 02:07:00,,0810.5,4.99,0.00,21.3,19.8,00.0,30.4,23.1,13.9,0000.0,0010.19,0003.61,0002.71
2022-11-29 02:08:00,,0810.6,5.00,0.00,21.3,19.8,00.0,30.4,23.1,14.0,0000.0,0010.03,0003.61,0002.69
2022-11-29 02:09:00,,0810.6,5.00,0.00,21.3,19.8,00.0,30.4,23.1,13.9,0000.0,0009.65,0003.59,0002.66
2022-11-29 02:10:00,,0810.6,5.00,0.00,21.3,19.8,00.0,30.3,23.1,13.9,0000.0,0009.24,0003.54,0002.66
2022-11-29 02:11:00,,0810.7,5.00,0.00,21.3,19.8,00.0,30.3,23.1,13.9,0000.0,0009.00,0003.55,0002.64
2022-11-29 02:12:00,,0810.7,5.00,0.00,21.3,19.8,00.0,30.3,23.1,14.0,0000.0,0008.84,0003.51,0002.61
2022-11-29 02:13:00,,0810.8,5.00,0.00,21.3,19.9,00.0,30.3,23.1,14.0,0000.0,0008.38,0003.48,0002.59
2022-11-29 02:14:00,,0810.8,5.00,0.00,21.3,19.8,00.0,30.3,23.1,14.0,0000.0,0008.96,0003.43,0002.56
2022-11-29 02:15:00,,0810.8,4.99,0.00,21.3,19.8,00.0,30.3,23.1,14.1,0000.0,0009.13,0003.40,0002.54
2022-11-29 02:16:00,,0810.9,4.99,0.00,21.3,19.8,00.0,30.3,23.0,14.1,0000.0,0009.30,0003.39,0002.52
2022-11-29 02:17:00,,0811.0,5.01,0.00,21.2,19.8,00.0,30.3,23.1,14.1,0000.0,0009.77,0003.36,0002.50
2022-11-29 02:18:00,,0811.0,5.01,0.00,21.2,19.9,00.0,30.2,23.1,14.1,0000.0,0010.79,0003.33,0002.48
2022-11-29 02:19:00,,0811.0,5.00,0.00,21.3,20.6,00.0,30.2,23.3,14.1,0000.0,0010.82,0003.30,0002.46
2022-11-29 02:20:00,,0811.0,5.00,0.00,21.4,21.5,00.0,30.2,23.5,14.0,0000.0,0010.65,0003.25,0002.43
2022-11-29 02:21:00,,0810.9,5.00,0.00,21.5,21.6,00.0,30.3,23.6,13.9,0000.0,0010.41,0003.24,0002.39
2022-11-29 02:22:00,,0811.0,4.99,0.00,21.6,21.3,00.0,30.3,23.5,13.9,0000.0,0009.94,0003.18,0002.38
2022-11-29 02:23:00,,0811.0,5.00,0.00,21.6,21.0,00.0,30.4,23.5,13.9,0000.0,0009.96,0003.18,0002.37
2022-11-29 02:24:00,,0811.0,5.01,0.00,21.6,20.8,00.0,30.4,23.4,13.9,0000.0,0010.34,0003.20,0002.34
2022-11-29 02:25:00,,0811.0,5.00,0.00,21.6,20.7,00.0,30.4,23.5,14.0,0000.0,0010.11,0003.24,0002.34
2022-11-29 02:26:00,,0811.1,5.00,0.00,21.6,20.7,00.0,30.4,23.5,14.0,0000.0,0010.00,0003.24,0002.34
2022-11-29 02:27:00,,0811.0,5.01,0.00,21.6,20.6,00.0,30.5,23.5,13.9,0000.0,0009.98,0003.24,0002.33
2022-11-29 02:28:00,,0811.0,5.01,0.00,21.6,20.5,00.0,30.5,23.5,13.9,0000.0,0009.14,0003.24,0002.31
2022-11-29 02:29:00,,0811.0,5.00,0.00,21.6,20.5,00.0,30.5,23.4,13.9,0000.0,0008.19,0003.25,0002.29
2022-11-29 02:30:00,,0811.0,4.99,0.00,21.6,20.4,00.0,30.5,23.5,13.9,0000.0,0008.14,0003.28,0002.28
2022-11-29 02:31:00,,0811.0,5.02,0.00,21.6,20.4,00.0,30.5,23.5,13.9,0000.0,0008.56,0003.28,0002.27
2022-11-29 02:32:00,,0811.0,5.00,0.00,21.6,20.4,00.0,30.5,23.4,13.9,0000.0,0008.72,0003.27,0002.29
2022-11-29 02:33:00,,0811.1,5.00,0.00,21.6,20.4,00.0,30.5,23.4,13.9,0000.0,0009.31,0003.30,0002.31
2022-11-29 02:34:00,,0811.2,5.00,0.00,21.6,20.4,00.0,30.5,23.4,13.9,0000.0,0009.44,0003.32,0002.31
2022-11-29 02:35:00,,0811.1,5.00,0.00,21.6,20.4,00.0,30.5,23.5,13.9,0000.0,0009.17,0003.29,0002.31
2022-11-29 02:36:00,,0811.1,5.00,0.00,21.6,20.4,00.0,30.5,23.5,13.9,0000.0,0008.25,0003.27,0002.32
2022-11-29 02:37:00,,0811.0,5.00,0.00,21.6,20.4,00.0,30.5,23.4,14.0,0000.0,0008.67,0003.29,0002.36
2022-11-29 02:38:00,,0811.1,5.00,0.00,21.6,20.4,00.0,30.5,23.4,13.9,0000.0,0010.87,0003.34,0002.40
2022-11-29 02:39:00,,0811.0,5.00,0.00,21.6,20.4,00.0,30.5,23.5,14.0,0000.0,0012.40,0003.40,0002.47
2022-11-29 02:40:00,,0811.1,5.00,0.00,21.6,20.5,00.0,30.6,23.5,14.0,0000.0,0013.14,0003.42,0002.52
2022-11-29 02:41:00,,0811.1,5.00,0.00,21.6,20.5,00.0,30.6,23.5,14.0,0000.0,0013.35,0003.40,0002.56
2022-11-29 02:42:00,,0811.2,5.00,0.00,21.6,20.5,00.0,30.6,23.5,14.0,0000.0,0013.07,0003.36,0002.58
2022-11-29 02:43:00,,0811.1,5.00,0.00,21.6,20.5,00.0,30.6,23.5,14.0,0000.0,0013.58,0003.38,0002.59
2022-11-29 02:44:00,,0811.2,5.00,0.00,21.6,20.5,00.0,30.6,23.6,14.0,0000.0,0013.28,0003.39,0002.62
2022-11-29 02:45:00,,0811.3,5.00,0.00,21.7,20.5,00.0,30.6,23.6,14.0,0000.0,0013.70,0003.42,0002.67
2022-11-29 02:46:00,,0811.4,5.00,0.00,21.7,20.5,00.0,30.6,23.6,14.0,0000.0,0014.53,0003.45,0002.73
2022-11-29 02:47:00,,0811.5,5.01,0.00,21.7,20.6,00.0,30.6,23.6,14.0,0000.0,0014.94,0003.48,0002.77
2022-11-29 02:48:00,,0811.6,5.00,0.00,21.7,20.6,00.0,30.6,23.6,14.0,0000.0,0014.83,0003.52,0002.79
2022-11-29 02:49:00,,0811.6,5.00,0.00,21.7,20.6,00.0,30.6,23.6,14.0,0000.0,0013.20,0003.51,0002.79
2022-11-29 02:50:00,,0811.6,4.99,0.00,21.7,20.6,00.0,30.6,23.6,14.0,0000.0,0011.76,0003.47,0002.77
2022-11-29 02:51:00,,0811.5,5.00,0.00,21.7,20.6,00.0,30.6,23.6,13.9,0000.0,0011.12,0003.46,0002.76
2022-11-29 02:52:00,,0811.5,5.00,0.00,21.7,20.6,00.0,30.6,23.7,13.9,0000.0,0010.83,0003.46,0002.75
2022-11-29 02:53:00,,0811.4,5.01,0.00,21.7,20.6,00.0,30.6,23.6,13.9,0000.0,0010.65,0003.48,0002.75
2022-11-29 02:54:00,,0811.4,5.01,0.00,21.7,20.6,00.0,30.6,23.6,13.9,0000.0,0010.36,0003.48,0002.74
2022-11-29 02:55:00,,0811.4,4.99,0.00,21.7,20.6,00.0,30.6,23.6,13.9,0000.0,0010.25,0003.46,0002.71
2022-11-29 02:56:00,,0811.5,4.99,0.00,21.7,20.6,00.0,30.6,23.6,13.9,0000.0,0009.61,0003.42,0002.67
2022-11-29 02:57:00,,0811.6,5.00,0.00,21.7,20.6,00.0,30.6,23.6,13.9,0000.0,0008.86,0003.42,0002.62
2022-11-29 02:58:00,,0811.6,4.99,0.00,21.7,20.6,00.0,30.7,23.6,13.9,0000.0,0008.96,0003.40,0002.56
2022-11-29 02:59:00,,0811.7,5.00,0.00,21.7,20.6,00.0,30.7,23.7,13.9,0000.0,0009.03,0003.34,0002.50
